<?xml version="1.0" encoding="UTF-8" standalone="no" ?>
<gpx xmlns="http://www.topografix.com/GPX/1/1" xmlns:xsi="http://www.w3.org/2001/XMLSchema-instance" xsi:schemaLocation="http://www.topografix.com/GPX/1/1 http://www.topografix.com/GPX/1/1/gpx.xsd" version="1.1" creator="VisuGPX - https://www.visugpx.com">
  <metadata>
    <name>SoulainesAubance</name>
    <desc><![CDATA[TCm0CnLFMc gnerando idor: 18813754_20883968_20884331_]]></desc>
  </metadata>
  <trk>
    <name><![CDATA[Soulaines bis-20883968_21km]]></name>
    <extensions>
      <line xmlns="http://www.topografix.com/GPX/gpx_style/0/2">
        <color>ff8040</color>
        <width>2</width>
      </line>
    </extensions>
    <trkseg>
      <trkpt lat="47.3642" lon="-0.52304">
        <ele>53</ele>
        <time>2025-03-13T19:17:25Z</time>
      </trkpt>
      <trkpt lat="47.36415" lon="-0.52302">
        <ele>53</ele>
        <time>2025-03-13T19:17:29Z</time>
      </trkpt>
      <trkpt lat="47.3641" lon="-0.52325">
        <ele>53</ele>
        <time>2025-03-13T19:17:42Z</time>
      </trkpt>
      <trkpt lat="47.36408" lon="-0.52344">
        <ele>54</ele>
        <time>2025-03-13T19:17:53Z</time>
      </trkpt>
      <trkpt lat="47.3641" lon="-0.52374">
        <ele>54</ele>
        <time>2025-03-13T19:18:09Z</time>
      </trkpt>
      <trkpt lat="47.36412" lon="-0.52385">
        <ele>54</ele>
        <time>2025-03-13T19:18:15Z</time>
      </trkpt>
      <trkpt lat="47.36441" lon="-0.52468">
        <ele>56</ele>
        <time>2025-03-13T19:19:06Z</time>
      </trkpt>
      <trkpt lat="47.36443" lon="-0.52474">
        <ele>56</ele>
        <time>2025-03-13T19:19:09Z</time>
      </trkpt>
      <trkpt lat="47.36449" lon="-0.52485">
        <ele>56</ele>
        <time>2025-03-13T19:19:17Z</time>
      </trkpt>
      <trkpt lat="47.36446" lon="-0.52487">
        <ele>56</ele>
        <time>2025-03-13T19:19:20Z</time>
      </trkpt>
      <trkpt lat="47.36409" lon="-0.52509">
        <ele>54</ele>
        <time>2025-03-13T19:19:52Z</time>
      </trkpt>
      <trkpt lat="47.36375" lon="-0.52521">
        <ele>53</ele>
        <time>2025-03-13T19:20:20Z</time>
      </trkpt>
      <trkpt lat="47.3633" lon="-0.52516">
        <ele>52</ele>
        <time>2025-03-13T19:20:56Z</time>
      </trkpt>
      <trkpt lat="47.36251" lon="-0.52497">
        <ele>50</ele>
        <time>2025-03-13T19:22:00Z</time>
      </trkpt>
      <trkpt lat="47.36245" lon="-0.52496">
        <ele>50</ele>
        <time>2025-03-13T19:22:05Z</time>
      </trkpt>
      <trkpt lat="47.36238" lon="-0.52519">
        <ele>50</ele>
        <time>2025-03-13T19:22:18Z</time>
      </trkpt>
      <trkpt lat="47.36224" lon="-0.52565">
        <ele>51</ele>
        <time>2025-03-13T19:22:46Z</time>
      </trkpt>
      <trkpt lat="47.36216" lon="-0.52601">
        <ele>52</ele>
        <time>2025-03-13T19:23:06Z</time>
      </trkpt>
      <trkpt lat="47.36187" lon="-0.5269">
        <ele>54</ele>
        <time>2025-03-13T19:24:00Z</time>
      </trkpt>
      <trkpt lat="47.36093" lon="-0.52939">
        <ele>65</ele>
        <time>2025-03-13T19:26:34Z</time>
      </trkpt>
      <trkpt lat="47.36085" lon="-0.52982">
        <ele>66</ele>
        <time>2025-03-13T19:26:59Z</time>
      </trkpt>
      <trkpt lat="47.36071" lon="-0.53075">
        <ele>71</ele>
        <time>2025-03-13T19:27:50Z</time>
      </trkpt>
      <trkpt lat="47.36063" lon="-0.53121">
        <ele>73</ele>
        <time>2025-03-13T19:28:16Z</time>
      </trkpt>
      <trkpt lat="47.36045" lon="-0.53193">
        <ele>75</ele>
        <time>2025-03-13T19:28:58Z</time>
      </trkpt>
      <trkpt lat="47.36005" lon="-0.53311">
        <ele>78</ele>
        <time>2025-03-13T19:30:09Z</time>
      </trkpt>
      <trkpt lat="47.35987" lon="-0.53387">
        <ele>80</ele>
        <time>2025-03-13T19:30:53Z</time>
      </trkpt>
      <trkpt lat="47.35987" lon="-0.53389">
        <ele>80</ele>
        <time>2025-03-13T19:30:54Z</time>
      </trkpt>
      <trkpt lat="47.35987" lon="-0.53387">
        <ele>80</ele>
        <time>2025-03-13T19:30:55Z</time>
      </trkpt>
      <trkpt lat="47.35942" lon="-0.53371">
        <ele>80</ele>
        <time>2025-03-13T19:31:32Z</time>
      </trkpt>
      <trkpt lat="47.35896" lon="-0.53359">
        <ele>80</ele>
        <time>2025-03-13T19:32:10Z</time>
      </trkpt>
      <trkpt lat="47.35825" lon="-0.5333">
        <ele>80</ele>
        <time>2025-03-13T19:33:09Z</time>
      </trkpt>
      <trkpt lat="47.35763" lon="-0.53307">
        <ele>78</ele>
        <time>2025-03-13T19:34:00Z</time>
      </trkpt>
      <trkpt lat="47.35712" lon="-0.53296">
        <ele>78</ele>
        <time>2025-03-13T19:34:41Z</time>
      </trkpt>
      <trkpt lat="47.35705" lon="-0.53296">
        <ele>79</ele>
        <time>2025-03-13T19:34:47Z</time>
      </trkpt>
      <trkpt lat="47.35675" lon="-0.53293">
        <ele>79</ele>
        <time>2025-03-13T19:35:11Z</time>
      </trkpt>
      <trkpt lat="47.35618" lon="-0.53277">
        <ele>80</ele>
        <time>2025-03-13T19:35:57Z</time>
      </trkpt>
      <trkpt lat="47.35605" lon="-0.53271">
        <ele>80</ele>
        <time>2025-03-13T19:36:08Z</time>
      </trkpt>
      <trkpt lat="47.3558" lon="-0.53257">
        <ele>81</ele>
        <time>2025-03-13T19:36:29Z</time>
      </trkpt>
      <trkpt lat="47.35533" lon="-0.53229">
        <ele>81</ele>
        <time>2025-03-13T19:37:10Z</time>
      </trkpt>
      <trkpt lat="47.35495" lon="-0.53212">
        <ele>80</ele>
        <time>2025-03-13T19:37:42Z</time>
      </trkpt>
      <trkpt lat="47.35492" lon="-0.53207">
        <ele>80</ele>
        <time>2025-03-13T19:37:45Z</time>
      </trkpt>
      <trkpt lat="47.35443" lon="-0.5319">
        <ele>79</ele>
        <time>2025-03-13T19:38:26Z</time>
      </trkpt>
      <trkpt lat="47.35373" lon="-0.53177">
        <ele>79</ele>
        <time>2025-03-13T19:39:22Z</time>
      </trkpt>
      <trkpt lat="47.35295" lon="-0.53156">
        <ele>79</ele>
        <time>2025-03-13T19:40:26Z</time>
      </trkpt>
      <trkpt lat="47.35227" lon="-0.5313">
        <ele>79</ele>
        <time>2025-03-13T19:41:22Z</time>
      </trkpt>
      <trkpt lat="47.35185" lon="-0.53102">
        <ele>78</ele>
        <time>2025-03-13T19:41:59Z</time>
      </trkpt>
      <trkpt lat="47.35149" lon="-0.53068">
        <ele>77</ele>
        <time>2025-03-13T19:42:33Z</time>
      </trkpt>
      <trkpt lat="47.35131" lon="-0.53048">
        <ele>77</ele>
        <time>2025-03-13T19:42:51Z</time>
      </trkpt>
      <trkpt lat="47.35154" lon="-0.53011">
        <ele>78</ele>
        <time>2025-03-13T19:43:18Z</time>
      </trkpt>
      <trkpt lat="47.35158" lon="-0.53003">
        <ele>78</ele>
        <time>2025-03-13T19:43:24Z</time>
      </trkpt>
      <trkpt lat="47.35158" lon="-0.52994">
        <ele>78</ele>
        <time>2025-03-13T19:43:29Z</time>
      </trkpt>
      <trkpt lat="47.35163" lon="-0.52992">
        <ele>78</ele>
        <time>2025-03-13T19:43:33Z</time>
      </trkpt>
      <trkpt lat="47.35158" lon="-0.52994">
        <ele>78</ele>
        <time>2025-03-13T19:43:37Z</time>
      </trkpt>
      <trkpt lat="47.35149" lon="-0.52996">
        <ele>78</ele>
        <time>2025-03-13T19:43:44Z</time>
      </trkpt>
      <trkpt lat="47.35137" lon="-0.52997">
        <ele>77</ele>
        <time>2025-03-13T19:43:54Z</time>
      </trkpt>
      <trkpt lat="47.35011" lon="-0.52998">
        <ele>75</ele>
        <time>2025-03-13T19:45:35Z</time>
      </trkpt>
      <trkpt lat="47.35003" lon="-0.52998">
        <ele>75</ele>
        <time>2025-03-13T19:45:41Z</time>
      </trkpt>
      <trkpt lat="47.34885" lon="-0.53001">
        <ele>79</ele>
        <time>2025-03-13T19:47:16Z</time>
      </trkpt>
      <trkpt lat="47.34857" lon="-0.53003">
        <ele>80</ele>
        <time>2025-03-13T19:47:38Z</time>
      </trkpt>
      <trkpt lat="47.34824" lon="-0.53008">
        <ele>80</ele>
        <time>2025-03-13T19:48:05Z</time>
      </trkpt>
      <trkpt lat="47.34819" lon="-0.53009">
        <ele>80</ele>
        <time>2025-03-13T19:48:09Z</time>
      </trkpt>
      <trkpt lat="47.34718" lon="-0.53027">
        <ele>82</ele>
        <time>2025-03-13T19:49:30Z</time>
      </trkpt>
      <trkpt lat="47.34691" lon="-0.5303">
        <ele>82</ele>
        <time>2025-03-13T19:49:52Z</time>
      </trkpt>
      <trkpt lat="47.34677" lon="-0.53029">
        <ele>83</ele>
        <time>2025-03-13T19:50:03Z</time>
      </trkpt>
      <trkpt lat="47.34336" lon="-0.52977">
        <ele>90</ele>
        <time>2025-03-13T19:54:38Z</time>
      </trkpt>
      <trkpt lat="47.34311" lon="-0.52972">
        <ele>91</ele>
        <time>2025-03-13T19:54:58Z</time>
      </trkpt>
      <trkpt lat="47.34301" lon="-0.52969">
        <ele>91</ele>
        <time>2025-03-13T19:55:06Z</time>
      </trkpt>
      <trkpt lat="47.34298" lon="-0.52968">
        <ele>91</ele>
        <time>2025-03-13T19:55:08Z</time>
      </trkpt>
      <trkpt lat="47.34286" lon="-0.52959">
        <ele>91</ele>
        <time>2025-03-13T19:55:19Z</time>
      </trkpt>
      <trkpt lat="47.34278" lon="-0.52954">
        <ele>92</ele>
        <time>2025-03-13T19:55:26Z</time>
      </trkpt>
      <trkpt lat="47.34273" lon="-0.52952">
        <ele>92</ele>
        <time>2025-03-13T19:55:30Z</time>
      </trkpt>
      <trkpt lat="47.34273" lon="-0.52937">
        <ele>92</ele>
        <time>2025-03-13T19:55:38Z</time>
      </trkpt>
      <trkpt lat="47.3427" lon="-0.5292">
        <ele>92</ele>
        <time>2025-03-13T19:55:48Z</time>
      </trkpt>
      <trkpt lat="47.34252" lon="-0.52842">
        <ele>92</ele>
        <time>2025-03-13T19:56:33Z</time>
      </trkpt>
      <trkpt lat="47.34222" lon="-0.52724">
        <ele>91</ele>
        <time>2025-03-13T19:57:41Z</time>
      </trkpt>
      <trkpt lat="47.3418" lon="-0.52558">
        <ele>89</ele>
        <time>2025-03-13T19:59:17Z</time>
      </trkpt>
      <trkpt lat="47.34175" lon="-0.52536">
        <ele>88</ele>
        <time>2025-03-13T19:59:30Z</time>
      </trkpt>
      <trkpt lat="47.34174" lon="-0.52519">
        <ele>88</ele>
        <time>2025-03-13T19:59:39Z</time>
      </trkpt>
      <trkpt lat="47.34176" lon="-0.5249">
        <ele>87</ele>
        <time>2025-03-13T19:59:55Z</time>
      </trkpt>
      <trkpt lat="47.34183" lon="-0.52416">
        <ele>87</ele>
        <time>2025-03-13T20:00:35Z</time>
      </trkpt>
      <trkpt lat="47.34184" lon="-0.52389">
        <ele>87</ele>
        <time>2025-03-13T20:00:50Z</time>
      </trkpt>
      <trkpt lat="47.34184" lon="-0.52356">
        <ele>87</ele>
        <time>2025-03-13T20:01:08Z</time>
      </trkpt>
      <trkpt lat="47.34185" lon="-0.5234">
        <ele>87</ele>
        <time>2025-03-13T20:01:17Z</time>
      </trkpt>
      <trkpt lat="47.34182" lon="-0.52335">
        <ele>87</ele>
        <time>2025-03-13T20:01:20Z</time>
      </trkpt>
      <trkpt lat="47.34039" lon="-0.51873">
        <ele>93</ele>
        <time>2025-03-13T20:05:56Z</time>
      </trkpt>
      <trkpt lat="47.34036" lon="-0.51862">
        <ele>93</ele>
        <time>2025-03-13T20:06:02Z</time>
      </trkpt>
      <trkpt lat="47.33986" lon="-0.51708">
        <ele>94</ele>
        <time>2025-03-13T20:07:35Z</time>
      </trkpt>
      <trkpt lat="47.3397" lon="-0.51654">
        <ele>92</ele>
        <time>2025-03-13T20:08:07Z</time>
      </trkpt>
      <trkpt lat="47.33959" lon="-0.51605">
        <ele>90</ele>
        <time>2025-03-13T20:08:35Z</time>
      </trkpt>
      <trkpt lat="47.33951" lon="-0.51564">
        <ele>89</ele>
        <time>2025-03-13T20:08:58Z</time>
      </trkpt>
      <trkpt lat="47.33926" lon="-0.51382">
        <ele>87</ele>
        <time>2025-03-13T20:10:39Z</time>
      </trkpt>
      <trkpt lat="47.33924" lon="-0.51344">
        <ele>87</ele>
        <time>2025-03-13T20:11:00Z</time>
      </trkpt>
      <trkpt lat="47.33924" lon="-0.51252">
        <ele>86</ele>
        <time>2025-03-13T20:11:49Z</time>
      </trkpt>
      <trkpt lat="47.33922" lon="-0.51239">
        <ele>86</ele>
        <time>2025-03-13T20:11:57Z</time>
      </trkpt>
      <trkpt lat="47.3392" lon="-0.51227">
        <ele>85</ele>
        <time>2025-03-13T20:12:03Z</time>
      </trkpt>
      <trkpt lat="47.33957" lon="-0.51219">
        <ele>85</ele>
        <time>2025-03-13T20:12:33Z</time>
      </trkpt>
      <trkpt lat="47.34047" lon="-0.51185">
        <ele>82</ele>
        <time>2025-03-13T20:13:48Z</time>
      </trkpt>
      <trkpt lat="47.34055" lon="-0.51174">
        <ele>82</ele>
        <time>2025-03-13T20:13:56Z</time>
      </trkpt>
      <trkpt lat="47.34057" lon="-0.51142">
        <ele>81</ele>
        <time>2025-03-13T20:14:14Z</time>
      </trkpt>
      <trkpt lat="47.34078" lon="-0.51075">
        <ele>78</ele>
        <time>2025-03-13T20:14:54Z</time>
      </trkpt>
      <trkpt lat="47.34088" lon="-0.5107">
        <ele>78</ele>
        <time>2025-03-13T20:15:02Z</time>
      </trkpt>
      <trkpt lat="47.3412" lon="-0.51108">
        <ele>78</ele>
        <time>2025-03-13T20:15:35Z</time>
      </trkpt>
      <trkpt lat="47.34189" lon="-0.50985">
        <ele>74</ele>
        <time>2025-03-13T20:17:02Z</time>
      </trkpt>
      <trkpt lat="47.34208" lon="-0.50969">
        <ele>73</ele>
        <time>2025-03-13T20:17:19Z</time>
      </trkpt>
      <trkpt lat="47.34279" lon="-0.50959">
        <ele>71</ele>
        <time>2025-03-13T20:18:17Z</time>
      </trkpt>
      <trkpt lat="47.34407" lon="-0.50955">
        <ele>70</ele>
        <time>2025-03-13T20:19:59Z</time>
      </trkpt>
      <trkpt lat="47.34466" lon="-0.50959">
        <ele>71</ele>
        <time>2025-03-13T20:20:46Z</time>
      </trkpt>
      <trkpt lat="47.34495" lon="-0.50956">
        <ele>71</ele>
        <time>2025-03-13T20:21:10Z</time>
      </trkpt>
      <trkpt lat="47.34521" lon="-0.50924">
        <ele>71</ele>
        <time>2025-03-13T20:21:37Z</time>
      </trkpt>
      <trkpt lat="47.3455" lon="-0.50871">
        <ele>73</ele>
        <time>2025-03-13T20:22:14Z</time>
      </trkpt>
      <trkpt lat="47.34589" lon="-0.50848">
        <ele>73</ele>
        <time>2025-03-13T20:22:47Z</time>
      </trkpt>
      <trkpt lat="47.34618" lon="-0.5083">
        <ele>71</ele>
        <time>2025-03-13T20:23:13Z</time>
      </trkpt>
      <trkpt lat="47.34627" lon="-0.50817">
        <ele>70</ele>
        <time>2025-03-13T20:23:23Z</time>
      </trkpt>
      <trkpt lat="47.34651" lon="-0.50801">
        <ele>68</ele>
        <time>2025-03-13T20:23:44Z</time>
      </trkpt>
      <trkpt lat="47.34716" lon="-0.50776">
        <ele>68</ele>
        <time>2025-03-13T20:24:37Z</time>
      </trkpt>
      <trkpt lat="47.34736" lon="-0.50777">
        <ele>68</ele>
        <time>2025-03-13T20:24:53Z</time>
      </trkpt>
      <trkpt lat="47.34796" lon="-0.5074">
        <ele>68</ele>
        <time>2025-03-13T20:25:46Z</time>
      </trkpt>
      <trkpt lat="47.34819" lon="-0.5072">
        <ele>69</ele>
        <time>2025-03-13T20:26:07Z</time>
      </trkpt>
      <trkpt lat="47.34822" lon="-0.50718">
        <ele>69</ele>
        <time>2025-03-13T20:26:10Z</time>
      </trkpt>
      <trkpt lat="47.34836" lon="-0.50699">
        <ele>69</ele>
        <time>2025-03-13T20:26:25Z</time>
      </trkpt>
      <trkpt lat="47.3486" lon="-0.5063">
        <ele>67</ele>
        <time>2025-03-13T20:27:07Z</time>
      </trkpt>
      <trkpt lat="47.34878" lon="-0.50598">
        <ele>65</ele>
        <time>2025-03-13T20:27:29Z</time>
      </trkpt>
      <trkpt lat="47.34898" lon="-0.50582">
        <ele>64</ele>
        <time>2025-03-13T20:27:48Z</time>
      </trkpt>
      <trkpt lat="47.34915" lon="-0.50573">
        <ele>64</ele>
        <time>2025-03-13T20:28:02Z</time>
      </trkpt>
      <trkpt lat="47.34935" lon="-0.50554">
        <ele>63</ele>
        <time>2025-03-13T20:28:21Z</time>
      </trkpt>
      <trkpt lat="47.35" lon="-0.50469">
        <ele>61</ele>
        <time>2025-03-13T20:29:31Z</time>
      </trkpt>
      <trkpt lat="47.35032" lon="-0.50426">
        <ele>59</ele>
        <time>2025-03-13T20:30:05Z</time>
      </trkpt>
      <trkpt lat="47.35091" lon="-0.50329">
        <ele>59</ele>
        <time>2025-03-13T20:31:16Z</time>
      </trkpt>
      <trkpt lat="47.351" lon="-0.50318">
        <ele>58</ele>
        <time>2025-03-13T20:31:25Z</time>
      </trkpt>
      <trkpt lat="47.35103" lon="-0.50316">
        <ele>58</ele>
        <time>2025-03-13T20:31:28Z</time>
      </trkpt>
      <trkpt lat="47.35107" lon="-0.50308">
        <ele>58</ele>
        <time>2025-03-13T20:31:33Z</time>
      </trkpt>
      <trkpt lat="47.35118" lon="-0.50274">
        <ele>58</ele>
        <time>2025-03-13T20:31:54Z</time>
      </trkpt>
      <trkpt lat="47.35127" lon="-0.50253">
        <ele>57</ele>
        <time>2025-03-13T20:32:07Z</time>
      </trkpt>
      <trkpt lat="47.35135" lon="-0.50204">
        <ele>56</ele>
        <time>2025-03-13T20:32:35Z</time>
      </trkpt>
      <trkpt lat="47.35121" lon="-0.50165">
        <ele>55</ele>
        <time>2025-03-13T20:32:59Z</time>
      </trkpt>
      <trkpt lat="47.35118" lon="-0.50152">
        <ele>54</ele>
        <time>2025-03-13T20:33:06Z</time>
      </trkpt>
      <trkpt lat="47.35119" lon="-0.50096">
        <ele>53</ele>
        <time>2025-03-13T20:33:36Z</time>
      </trkpt>
      <trkpt lat="47.35118" lon="-0.50064">
        <ele>52</ele>
        <time>2025-03-13T20:33:54Z</time>
      </trkpt>
      <trkpt lat="47.351" lon="-0.49937">
        <ele>50</ele>
        <time>2025-03-13T20:35:04Z</time>
      </trkpt>
      <trkpt lat="47.35096" lon="-0.49876">
        <ele>48</ele>
        <time>2025-03-13T20:35:37Z</time>
      </trkpt>
      <trkpt lat="47.3509" lon="-0.49817">
        <ele>47</ele>
        <time>2025-03-13T20:36:10Z</time>
      </trkpt>
      <trkpt lat="47.35092" lon="-0.49807">
        <ele>47</ele>
        <time>2025-03-13T20:36:15Z</time>
      </trkpt>
      <trkpt lat="47.35116" lon="-0.49784">
        <ele>46</ele>
        <time>2025-03-13T20:36:38Z</time>
      </trkpt>
      <trkpt lat="47.35119" lon="-0.49775">
        <ele>46</ele>
        <time>2025-03-13T20:36:44Z</time>
      </trkpt>
      <trkpt lat="47.35117" lon="-0.49763">
        <ele>46</ele>
        <time>2025-03-13T20:36:51Z</time>
      </trkpt>
      <trkpt lat="47.35103" lon="-0.49717">
        <ele>45</ele>
        <time>2025-03-13T20:37:18Z</time>
      </trkpt>
      <trkpt lat="47.35103" lon="-0.49697">
        <ele>45</ele>
        <time>2025-03-13T20:37:29Z</time>
      </trkpt>
      <trkpt lat="47.35112" lon="-0.49666">
        <ele>45</ele>
        <time>2025-03-13T20:37:47Z</time>
      </trkpt>
      <trkpt lat="47.35114" lon="-0.49664">
        <ele>45</ele>
        <time>2025-03-13T20:37:49Z</time>
      </trkpt>
      <trkpt lat="47.35117" lon="-0.4966">
        <ele>46</ele>
        <time>2025-03-13T20:37:52Z</time>
      </trkpt>
      <trkpt lat="47.3515" lon="-0.49616">
        <ele>48</ele>
        <time>2025-03-13T20:38:28Z</time>
      </trkpt>
      <trkpt lat="47.35159" lon="-0.49597">
        <ele>49</ele>
        <time>2025-03-13T20:38:40Z</time>
      </trkpt>
      <trkpt lat="47.35163" lon="-0.49566">
        <ele>50</ele>
        <time>2025-03-13T20:38:58Z</time>
      </trkpt>
      <trkpt lat="47.35166" lon="-0.49522">
        <ele>51</ele>
        <time>2025-03-13T20:39:22Z</time>
      </trkpt>
      <trkpt lat="47.35176" lon="-0.49474">
        <ele>54</ele>
        <time>2025-03-13T20:39:49Z</time>
      </trkpt>
      <trkpt lat="47.35196" lon="-0.49428">
        <ele>56</ele>
        <time>2025-03-13T20:40:18Z</time>
      </trkpt>
      <trkpt lat="47.35201" lon="-0.49428">
        <ele>56</ele>
        <time>2025-03-13T20:40:22Z</time>
      </trkpt>
      <trkpt lat="47.35211" lon="-0.49429">
        <ele>56</ele>
        <time>2025-03-13T20:40:30Z</time>
      </trkpt>
      <trkpt lat="47.3523" lon="-0.49424">
        <ele>57</ele>
        <time>2025-03-13T20:40:46Z</time>
      </trkpt>
      <trkpt lat="47.35253" lon="-0.49412">
        <ele>57</ele>
        <time>2025-03-13T20:41:05Z</time>
      </trkpt>
      <trkpt lat="47.35284" lon="-0.49407">
        <ele>53</ele>
        <time>2025-03-13T20:41:30Z</time>
      </trkpt>
      <trkpt lat="47.35311" lon="-0.49404">
        <ele>50</ele>
        <time>2025-03-13T20:41:52Z</time>
      </trkpt>
      <trkpt lat="47.35342" lon="-0.49402">
        <ele>47</ele>
        <time>2025-03-13T20:42:17Z</time>
      </trkpt>
      <trkpt lat="47.35357" lon="-0.49404">
        <ele>47</ele>
        <time>2025-03-13T20:42:29Z</time>
      </trkpt>
      <trkpt lat="47.35378" lon="-0.49413">
        <ele>46</ele>
        <time>2025-03-13T20:42:46Z</time>
      </trkpt>
      <trkpt lat="47.35399" lon="-0.49438">
        <ele>46</ele>
        <time>2025-03-13T20:43:08Z</time>
      </trkpt>
      <trkpt lat="47.35425" lon="-0.49481">
        <ele>46</ele>
        <time>2025-03-13T20:43:39Z</time>
      </trkpt>
      <trkpt lat="47.35462" lon="-0.4953">
        <ele>46</ele>
        <time>2025-03-13T20:44:19Z</time>
      </trkpt>
      <trkpt lat="47.35464" lon="-0.49532">
        <ele>46</ele>
        <time>2025-03-13T20:44:21Z</time>
      </trkpt>
      <trkpt lat="47.35473" lon="-0.49544">
        <ele>46</ele>
        <time>2025-03-13T20:44:31Z</time>
      </trkpt>
      <trkpt lat="47.35504" lon="-0.49573">
        <ele>46</ele>
        <time>2025-03-13T20:45:00Z</time>
      </trkpt>
      <trkpt lat="47.3553" lon="-0.49603">
        <ele>48</ele>
        <time>2025-03-13T20:45:27Z</time>
      </trkpt>
      <trkpt lat="47.3555" lon="-0.49633">
        <ele>50</ele>
        <time>2025-03-13T20:45:49Z</time>
      </trkpt>
      <trkpt lat="47.35588" lon="-0.49706">
        <ele>56</ele>
        <time>2025-03-13T20:46:39Z</time>
      </trkpt>
      <trkpt lat="47.35635" lon="-0.49764">
        <ele>60</ele>
        <time>2025-03-13T20:47:28Z</time>
      </trkpt>
      <trkpt lat="47.35652" lon="-0.49764">
        <ele>61</ele>
        <time>2025-03-13T20:47:42Z</time>
      </trkpt>
      <trkpt lat="47.35683" lon="-0.49765">
        <ele>61</ele>
        <time>2025-03-13T20:48:07Z</time>
      </trkpt>
      <trkpt lat="47.35704" lon="-0.4976">
        <ele>60</ele>
        <time>2025-03-13T20:48:24Z</time>
      </trkpt>
      <trkpt lat="47.35732" lon="-0.49733">
        <ele>58</ele>
        <time>2025-03-13T20:48:51Z</time>
      </trkpt>
      <trkpt lat="47.35812" lon="-0.49649">
        <ele>54</ele>
        <time>2025-03-13T20:50:09Z</time>
      </trkpt>
      <trkpt lat="47.35882" lon="-0.49571">
        <ele>52</ele>
        <time>2025-03-13T20:51:19Z</time>
      </trkpt>
      <trkpt lat="47.35891" lon="-0.49561">
        <ele>52</ele>
        <time>2025-03-13T20:51:29Z</time>
      </trkpt>
      <trkpt lat="47.35974" lon="-0.49493">
        <ele>48</ele>
        <time>2025-03-13T20:52:45Z</time>
      </trkpt>
      <trkpt lat="47.35997" lon="-0.49489">
        <ele>47</ele>
        <time>2025-03-13T20:53:03Z</time>
      </trkpt>
      <trkpt lat="47.36024" lon="-0.49474">
        <ele>47</ele>
        <time>2025-03-13T20:53:26Z</time>
      </trkpt>
      <trkpt lat="47.36071" lon="-0.49406">
        <ele>45</ele>
        <time>2025-03-13T20:54:19Z</time>
      </trkpt>
      <trkpt lat="47.36113" lon="-0.49332">
        <ele>45</ele>
        <time>2025-03-13T20:55:11Z</time>
      </trkpt>
      <trkpt lat="47.36129" lon="-0.49334">
        <ele>46</ele>
        <time>2025-03-13T20:55:24Z</time>
      </trkpt>
      <trkpt lat="47.36229" lon="-0.49334">
        <ele>50</ele>
        <time>2025-03-13T20:56:44Z</time>
      </trkpt>
      <trkpt lat="47.36253" lon="-0.49338">
        <ele>51</ele>
        <time>2025-03-13T20:57:03Z</time>
      </trkpt>
      <trkpt lat="47.36257" lon="-0.49339">
        <ele>51</ele>
        <time>2025-03-13T20:57:07Z</time>
      </trkpt>
      <trkpt lat="47.36253" lon="-0.49338">
        <ele>51</ele>
        <time>2025-03-13T20:57:10Z</time>
      </trkpt>
      <trkpt lat="47.36303" lon="-0.4914">
        <ele>47</ele>
        <time>2025-03-13T20:59:05Z</time>
      </trkpt>
      <trkpt lat="47.36322" lon="-0.49071">
        <ele>46</ele>
        <time>2025-03-13T20:59:45Z</time>
      </trkpt>
      <trkpt lat="47.36327" lon="-0.49034">
        <ele>46</ele>
        <time>2025-03-13T21:00:05Z</time>
      </trkpt>
      <trkpt lat="47.36328" lon="-0.4897">
        <ele>46</ele>
        <time>2025-03-13T21:00:40Z</time>
      </trkpt>
      <trkpt lat="47.36333" lon="-0.48945">
        <ele>47</ele>
        <time>2025-03-13T21:00:54Z</time>
      </trkpt>
      <trkpt lat="47.36385" lon="-0.48811">
        <ele>45</ele>
        <time>2025-03-13T21:02:18Z</time>
      </trkpt>
      <trkpt lat="47.36438" lon="-0.48848">
        <ele>45</ele>
        <time>2025-03-13T21:03:05Z</time>
      </trkpt>
      <trkpt lat="47.36527" lon="-0.48926">
        <ele>46</ele>
        <time>2025-03-13T21:04:28Z</time>
      </trkpt>
      <trkpt lat="47.3658" lon="-0.48977">
        <ele>45</ele>
        <time>2025-03-13T21:05:18Z</time>
      </trkpt>
      <trkpt lat="47.36596" lon="-0.48989">
        <ele>45</ele>
        <time>2025-03-13T21:05:33Z</time>
      </trkpt>
      <trkpt lat="47.36659" lon="-0.49034">
        <ele>41</ele>
        <time>2025-03-13T21:06:29Z</time>
      </trkpt>
      <trkpt lat="47.36689" lon="-0.49062">
        <ele>40</ele>
        <time>2025-03-13T21:06:57Z</time>
      </trkpt>
      <trkpt lat="47.36711" lon="-0.49093">
        <ele>40</ele>
        <time>2025-03-13T21:07:22Z</time>
      </trkpt>
      <trkpt lat="47.36743" lon="-0.49144">
        <ele>40</ele>
        <time>2025-03-13T21:07:59Z</time>
      </trkpt>
      <trkpt lat="47.36755" lon="-0.49154">
        <ele>40</ele>
        <time>2025-03-13T21:08:10Z</time>
      </trkpt>
      <trkpt lat="47.36832" lon="-0.49137">
        <ele>38</ele>
        <time>2025-03-13T21:09:13Z</time>
      </trkpt>
      <trkpt lat="47.36875" lon="-0.49122">
        <ele>37</ele>
        <time>2025-03-13T21:09:48Z</time>
      </trkpt>
      <trkpt lat="47.36928" lon="-0.49102">
        <ele>37</ele>
        <time>2025-03-13T21:10:32Z</time>
      </trkpt>
      <trkpt lat="47.36911" lon="-0.4901">
        <ele>36</ele>
        <time>2025-03-13T21:11:24Z</time>
      </trkpt>
      <trkpt lat="47.37001" lon="-0.4897">
        <ele>36</ele>
        <time>2025-03-13T21:12:39Z</time>
      </trkpt>
      <trkpt lat="47.37001" lon="-0.48969">
        <ele>36</ele>
        <time>2025-03-13T21:12:39Z</time>
      </trkpt>
      <trkpt lat="47.3699" lon="-0.48905">
        <ele>35</ele>
        <time>2025-03-13T21:13:15Z</time>
      </trkpt>
      <trkpt lat="47.37015" lon="-0.48883">
        <ele>34</ele>
        <time>2025-03-13T21:13:39Z</time>
      </trkpt>
      <trkpt lat="47.37032" lon="-0.48863">
        <ele>34</ele>
        <time>2025-03-13T21:13:56Z</time>
      </trkpt>
      <trkpt lat="47.37051" lon="-0.48836">
        <ele>34</ele>
        <time>2025-03-13T21:14:17Z</time>
      </trkpt>
      <trkpt lat="47.37071" lon="-0.48819">
        <ele>34</ele>
        <time>2025-03-13T21:14:36Z</time>
      </trkpt>
      <trkpt lat="47.37121" lon="-0.48791">
        <ele>35</ele>
        <time>2025-03-13T21:15:18Z</time>
      </trkpt>
      <trkpt lat="47.37158" lon="-0.48777">
        <ele>34</ele>
        <time>2025-03-13T21:15:49Z</time>
      </trkpt>
      <trkpt lat="47.37182" lon="-0.48779">
        <ele>34</ele>
        <time>2025-03-13T21:16:08Z</time>
      </trkpt>
      <trkpt lat="47.37206" lon="-0.48785">
        <ele>33</ele>
        <time>2025-03-13T21:16:28Z</time>
      </trkpt>
      <trkpt lat="47.37302" lon="-0.48822">
        <ele>32</ele>
        <time>2025-03-13T21:17:47Z</time>
      </trkpt>
      <trkpt lat="47.37303" lon="-0.48822">
        <ele>32</ele>
        <time>2025-03-13T21:17:48Z</time>
      </trkpt>
      <trkpt lat="47.37302" lon="-0.48822">
        <ele>32</ele>
        <time>2025-03-13T21:17:49Z</time>
      </trkpt>
      <trkpt lat="47.37296" lon="-0.48801">
        <ele>32</ele>
        <time>2025-03-13T21:18:01Z</time>
      </trkpt>
      <trkpt lat="47.37289" lon="-0.48766">
        <ele>31</ele>
        <time>2025-03-13T21:18:21Z</time>
      </trkpt>
      <trkpt lat="47.37286" lon="-0.48744">
        <ele>31</ele>
        <time>2025-03-13T21:18:33Z</time>
      </trkpt>
      <trkpt lat="47.37287" lon="-0.48718">
        <ele>31</ele>
        <time>2025-03-13T21:18:47Z</time>
      </trkpt>
      <trkpt lat="47.37288" lon="-0.48684">
        <ele>31</ele>
        <time>2025-03-13T21:19:06Z</time>
      </trkpt>
      <trkpt lat="47.37294" lon="-0.48581">
        <ele>29</ele>
        <time>2025-03-13T21:20:02Z</time>
      </trkpt>
      <trkpt lat="47.37395" lon="-0.48531">
        <ele>28</ele>
        <time>2025-03-13T21:21:27Z</time>
      </trkpt>
      <trkpt lat="47.37404" lon="-0.4853">
        <ele>28</ele>
        <time>2025-03-13T21:21:34Z</time>
      </trkpt>
      <trkpt lat="47.37432" lon="-0.48522">
        <ele>29</ele>
        <time>2025-03-13T21:21:57Z</time>
      </trkpt>
      <trkpt lat="47.37447" lon="-0.48513">
        <ele>30</ele>
        <time>2025-03-13T21:22:10Z</time>
      </trkpt>
      <trkpt lat="47.37459" lon="-0.48499">
        <ele>31</ele>
        <time>2025-03-13T21:22:22Z</time>
      </trkpt>
      <trkpt lat="47.37505" lon="-0.48446">
        <ele>33</ele>
        <time>2025-03-13T21:23:09Z</time>
      </trkpt>
      <trkpt lat="47.37509" lon="-0.48457">
        <ele>33</ele>
        <time>2025-03-13T21:23:16Z</time>
      </trkpt>
      <trkpt lat="47.37584" lon="-0.48658">
        <ele>38</ele>
        <time>2025-03-13T21:25:20Z</time>
      </trkpt>
      <trkpt lat="47.37643" lon="-0.48818">
        <ele>36</ele>
        <time>2025-03-13T21:26:59Z</time>
      </trkpt>
      <trkpt lat="47.37634" lon="-0.4883">
        <ele>36</ele>
        <time>2025-03-13T21:27:09Z</time>
      </trkpt>
      <trkpt lat="47.37611" lon="-0.48852">
        <ele>35</ele>
        <time>2025-03-13T21:27:31Z</time>
      </trkpt>
      <trkpt lat="47.37574" lon="-0.48874">
        <ele>34</ele>
        <time>2025-03-13T21:28:02Z</time>
      </trkpt>
      <trkpt lat="47.37498" lon="-0.48907">
        <ele>30</ele>
        <time>2025-03-13T21:29:06Z</time>
      </trkpt>
      <trkpt lat="47.37501" lon="-0.48928">
        <ele>30</ele>
        <time>2025-03-13T21:29:18Z</time>
      </trkpt>
      <trkpt lat="47.37503" lon="-0.48966">
        <ele>30</ele>
        <time>2025-03-13T21:29:38Z</time>
      </trkpt>
      <trkpt lat="47.37516" lon="-0.49012">
        <ele>31</ele>
        <time>2025-03-13T21:30:05Z</time>
      </trkpt>
      <trkpt lat="47.37519" lon="-0.49029">
        <ele>32</ele>
        <time>2025-03-13T21:30:15Z</time>
      </trkpt>
      <trkpt lat="47.37517" lon="-0.49052">
        <ele>32</ele>
        <time>2025-03-13T21:30:27Z</time>
      </trkpt>
      <trkpt lat="47.37511" lon="-0.49082">
        <ele>32</ele>
        <time>2025-03-13T21:30:44Z</time>
      </trkpt>
      <trkpt lat="47.37501" lon="-0.49107">
        <ele>31</ele>
        <time>2025-03-13T21:31:00Z</time>
      </trkpt>
      <trkpt lat="47.3749" lon="-0.49131">
        <ele>31</ele>
        <time>2025-03-13T21:31:16Z</time>
      </trkpt>
      <trkpt lat="47.37469" lon="-0.49166">
        <ele>30</ele>
        <time>2025-03-13T21:31:41Z</time>
      </trkpt>
      <trkpt lat="47.37455" lon="-0.49196">
        <ele>29</ele>
        <time>2025-03-13T21:32:01Z</time>
      </trkpt>
      <trkpt lat="47.37447" lon="-0.49223">
        <ele>29</ele>
        <time>2025-03-13T21:32:17Z</time>
      </trkpt>
      <trkpt lat="47.37392" lon="-0.4933">
        <ele>29</ele>
        <time>2025-03-13T21:33:30Z</time>
      </trkpt>
      <trkpt lat="47.37371" lon="-0.49385">
        <ele>30</ele>
        <time>2025-03-13T21:34:04Z</time>
      </trkpt>
      <trkpt lat="47.37354" lon="-0.49454">
        <ele>30</ele>
        <time>2025-03-13T21:34:44Z</time>
      </trkpt>
      <trkpt lat="47.37346" lon="-0.49496">
        <ele>30</ele>
        <time>2025-03-13T21:35:07Z</time>
      </trkpt>
      <trkpt lat="47.37338" lon="-0.49529">
        <ele>29</ele>
        <time>2025-03-13T21:35:26Z</time>
      </trkpt>
      <trkpt lat="47.3733" lon="-0.49603">
        <ele>28</ele>
        <time>2025-03-13T21:36:07Z</time>
      </trkpt>
      <trkpt lat="47.37325" lon="-0.49658">
        <ele>28</ele>
        <time>2025-03-13T21:36:37Z</time>
      </trkpt>
      <trkpt lat="47.37328" lon="-0.49711">
        <ele>27</ele>
        <time>2025-03-13T21:37:06Z</time>
      </trkpt>
      <trkpt lat="47.37325" lon="-0.49718">
        <ele>27</ele>
        <time>2025-03-13T21:37:10Z</time>
      </trkpt>
      <trkpt lat="47.37328" lon="-0.4972">
        <ele>27</ele>
        <time>2025-03-13T21:37:13Z</time>
      </trkpt>
      <trkpt lat="47.37332" lon="-0.49726">
        <ele>27</ele>
        <time>2025-03-13T21:37:18Z</time>
      </trkpt>
      <trkpt lat="47.37336" lon="-0.49734">
        <ele>27</ele>
        <time>2025-03-13T21:37:23Z</time>
      </trkpt>
      <trkpt lat="47.37363" lon="-0.49806">
        <ele>27</ele>
        <time>2025-03-13T21:38:08Z</time>
      </trkpt>
      <trkpt lat="47.37366" lon="-0.49813">
        <ele>27</ele>
        <time>2025-03-13T21:38:12Z</time>
      </trkpt>
      <trkpt lat="47.37376" lon="-0.49833">
        <ele>27</ele>
        <time>2025-03-13T21:38:26Z</time>
      </trkpt>
      <trkpt lat="47.37387" lon="-0.49847">
        <ele>27</ele>
        <time>2025-03-13T21:38:37Z</time>
      </trkpt>
      <trkpt lat="47.37394" lon="-0.49856">
        <ele>27</ele>
        <time>2025-03-13T21:38:45Z</time>
      </trkpt>
      <trkpt lat="47.3741" lon="-0.49873">
        <ele>27</ele>
        <time>2025-03-13T21:39:01Z</time>
      </trkpt>
      <trkpt lat="47.37414" lon="-0.49868">
        <ele>27</ele>
        <time>2025-03-13T21:39:05Z</time>
      </trkpt>
      <trkpt lat="47.37451" lon="-0.49847">
        <ele>30</ele>
        <time>2025-03-13T21:39:36Z</time>
      </trkpt>
      <trkpt lat="47.37461" lon="-0.49844">
        <ele>30</ele>
        <time>2025-03-13T21:39:45Z</time>
      </trkpt>
      <trkpt lat="47.37484" lon="-0.4984">
        <ele>32</ele>
        <time>2025-03-13T21:40:03Z</time>
      </trkpt>
      <trkpt lat="47.37493" lon="-0.49837">
        <ele>33</ele>
        <time>2025-03-13T21:40:11Z</time>
      </trkpt>
      <trkpt lat="47.37553" lon="-0.49813">
        <ele>34</ele>
        <time>2025-03-13T21:41:00Z</time>
      </trkpt>
      <trkpt lat="47.37561" lon="-0.49809">
        <ele>34</ele>
        <time>2025-03-13T21:41:07Z</time>
      </trkpt>
      <trkpt lat="47.37694" lon="-0.49759">
        <ele>38</ele>
        <time>2025-03-13T21:42:57Z</time>
      </trkpt>
      <trkpt lat="47.37747" lon="-0.4974">
        <ele>38</ele>
        <time>2025-03-13T21:43:41Z</time>
      </trkpt>
      <trkpt lat="47.37834" lon="-0.49712">
        <ele>38</ele>
        <time>2025-03-13T21:44:52Z</time>
      </trkpt>
      <trkpt lat="47.37933" lon="-0.49678">
        <ele>41</ele>
        <time>2025-03-13T21:46:13Z</time>
      </trkpt>
      <trkpt lat="47.37933" lon="-0.49663">
        <ele>41</ele>
        <time>2025-03-13T21:46:21Z</time>
      </trkpt>
      <trkpt lat="47.37928" lon="-0.49527">
        <ele>42</ele>
        <time>2025-03-13T21:47:35Z</time>
      </trkpt>
      <trkpt lat="47.37926" lon="-0.49492">
        <ele>42</ele>
        <time>2025-03-13T21:47:54Z</time>
      </trkpt>
      <trkpt lat="47.37922" lon="-0.49451">
        <ele>43</ele>
        <time>2025-03-13T21:48:17Z</time>
      </trkpt>
      <trkpt lat="47.3792" lon="-0.49441">
        <ele>43</ele>
        <time>2025-03-13T21:48:22Z</time>
      </trkpt>
      <trkpt lat="47.37918" lon="-0.4934">
        <ele>44</ele>
        <time>2025-03-13T21:49:17Z</time>
      </trkpt>
      <trkpt lat="47.37922" lon="-0.49262">
        <ele>45</ele>
        <time>2025-03-13T21:50:00Z</time>
      </trkpt>
      <trkpt lat="47.37926" lon="-0.49243">
        <ele>45</ele>
        <time>2025-03-13T21:50:10Z</time>
      </trkpt>
      <trkpt lat="47.37963" lon="-0.49128">
        <ele>46</ele>
        <time>2025-03-13T21:51:19Z</time>
      </trkpt>
      <trkpt lat="47.37973" lon="-0.49101">
        <ele>46</ele>
        <time>2025-03-13T21:51:36Z</time>
      </trkpt>
      <trkpt lat="47.38014" lon="-0.48933">
        <ele>46</ele>
        <time>2025-03-13T21:53:13Z</time>
      </trkpt>
      <trkpt lat="47.38019" lon="-0.4891">
        <ele>46</ele>
        <time>2025-03-13T21:53:26Z</time>
      </trkpt>
      <trkpt lat="47.3802" lon="-0.48891">
        <ele>46</ele>
        <time>2025-03-13T21:53:36Z</time>
      </trkpt>
      <trkpt lat="47.38009" lon="-0.48796">
        <ele>45</ele>
        <time>2025-03-13T21:54:29Z</time>
      </trkpt>
      <trkpt lat="47.38005" lon="-0.48699">
        <ele>45</ele>
        <time>2025-03-13T21:55:21Z</time>
      </trkpt>
      <trkpt lat="47.38005" lon="-0.48687">
        <ele>45</ele>
        <time>2025-03-13T21:55:28Z</time>
      </trkpt>
      <trkpt lat="47.38007" lon="-0.48652">
        <ele>46</ele>
        <time>2025-03-13T21:55:47Z</time>
      </trkpt>
      <trkpt lat="47.38006" lon="-0.48646">
        <ele>46</ele>
        <time>2025-03-13T21:55:50Z</time>
      </trkpt>
      <trkpt lat="47.37969" lon="-0.48426">
        <ele>52</ele>
        <time>2025-03-13T21:57:53Z</time>
      </trkpt>
      <trkpt lat="47.37955" lon="-0.48381">
        <ele>52</ele>
        <time>2025-03-13T21:58:20Z</time>
      </trkpt>
      <trkpt lat="47.37924" lon="-0.48216">
        <ele>57</ele>
        <time>2025-03-13T21:59:53Z</time>
      </trkpt>
      <trkpt lat="47.37972" lon="-0.48193">
        <ele>59</ele>
        <time>2025-03-13T22:00:33Z</time>
      </trkpt>
      <trkpt lat="47.37986" lon="-0.48195">
        <ele>59</ele>
        <time>2025-03-13T22:00:44Z</time>
      </trkpt>
      <trkpt lat="47.38052" lon="-0.48258">
        <ele>57</ele>
        <time>2025-03-13T22:01:47Z</time>
      </trkpt>
      <trkpt lat="47.38094" lon="-0.48332">
        <ele>56</ele>
        <time>2025-03-13T22:02:40Z</time>
      </trkpt>
      <trkpt lat="47.38113" lon="-0.48373">
        <ele>55</ele>
        <time>2025-03-13T22:03:07Z</time>
      </trkpt>
      <trkpt lat="47.38129" lon="-0.48405">
        <ele>54</ele>
        <time>2025-03-13T22:03:28Z</time>
      </trkpt>
      <trkpt lat="47.38155" lon="-0.48488">
        <ele>53</ele>
        <time>2025-03-13T22:04:18Z</time>
      </trkpt>
      <trkpt lat="47.38176" lon="-0.48597">
        <ele>53</ele>
        <time>2025-03-13T22:05:19Z</time>
      </trkpt>
      <trkpt lat="47.38176" lon="-0.48608">
        <ele>53</ele>
        <time>2025-03-13T22:05:25Z</time>
      </trkpt>
      <trkpt lat="47.38176" lon="-0.4861">
        <ele>53</ele>
        <time>2025-03-13T22:05:26Z</time>
      </trkpt>
      <trkpt lat="47.38174" lon="-0.48628">
        <ele>53</ele>
        <time>2025-03-13T22:05:36Z</time>
      </trkpt>
      <trkpt lat="47.38178" lon="-0.48668">
        <ele>52</ele>
        <time>2025-03-13T22:05:58Z</time>
      </trkpt>
      <trkpt lat="47.38188" lon="-0.4874">
        <ele>52</ele>
        <time>2025-03-13T22:06:38Z</time>
      </trkpt>
      <trkpt lat="47.38203" lon="-0.48806">
        <ele>51</ele>
        <time>2025-03-13T22:07:16Z</time>
      </trkpt>
      <trkpt lat="47.38208" lon="-0.48846">
        <ele>50</ele>
        <time>2025-03-13T22:07:38Z</time>
      </trkpt>
      <trkpt lat="47.38213" lon="-0.48915">
        <ele>51</ele>
        <time>2025-03-13T22:08:15Z</time>
      </trkpt>
      <trkpt lat="47.38215" lon="-0.48967">
        <ele>52</ele>
        <time>2025-03-13T22:08:44Z</time>
      </trkpt>
      <trkpt lat="47.38235" lon="-0.49058">
        <ele>52</ele>
        <time>2025-03-13T22:09:35Z</time>
      </trkpt>
      <trkpt lat="47.38244" lon="-0.49107">
        <ele>52</ele>
        <time>2025-03-13T22:10:03Z</time>
      </trkpt>
      <trkpt lat="47.38254" lon="-0.49162">
        <ele>51</ele>
        <time>2025-03-13T22:10:34Z</time>
      </trkpt>
      <trkpt lat="47.3826" lon="-0.4919">
        <ele>51</ele>
        <time>2025-03-13T22:10:50Z</time>
      </trkpt>
      <trkpt lat="47.38268" lon="-0.49271">
        <ele>52</ele>
        <time>2025-03-13T22:11:34Z</time>
      </trkpt>
      <trkpt lat="47.3827" lon="-0.49303">
        <ele>52</ele>
        <time>2025-03-13T22:11:52Z</time>
      </trkpt>
      <trkpt lat="47.38271" lon="-0.4931">
        <ele>52</ele>
        <time>2025-03-13T22:11:55Z</time>
      </trkpt>
      <trkpt lat="47.38273" lon="-0.49315">
        <ele>52</ele>
        <time>2025-03-13T22:11:59Z</time>
      </trkpt>
      <trkpt lat="47.38279" lon="-0.49326">
        <ele>53</ele>
        <time>2025-03-13T22:12:06Z</time>
      </trkpt>
      <trkpt lat="47.38285" lon="-0.49332">
        <ele>53</ele>
        <time>2025-03-13T22:12:12Z</time>
      </trkpt>
      <trkpt lat="47.38289" lon="-0.49334">
        <ele>53</ele>
        <time>2025-03-13T22:12:15Z</time>
      </trkpt>
      <trkpt lat="47.38296" lon="-0.49336">
        <ele>53</ele>
        <time>2025-03-13T22:12:21Z</time>
      </trkpt>
      <trkpt lat="47.38321" lon="-0.49335">
        <ele>54</ele>
        <time>2025-03-13T22:12:41Z</time>
      </trkpt>
      <trkpt lat="47.38326" lon="-0.49336">
        <ele>54</ele>
        <time>2025-03-13T22:12:45Z</time>
      </trkpt>
      <trkpt lat="47.38335" lon="-0.49343">
        <ele>54</ele>
        <time>2025-03-13T22:12:53Z</time>
      </trkpt>
      <trkpt lat="47.38334" lon="-0.4935">
        <ele>54</ele>
        <time>2025-03-13T22:12:57Z</time>
      </trkpt>
      <trkpt lat="47.38325" lon="-0.49401">
        <ele>54</ele>
        <time>2025-03-13T22:13:26Z</time>
      </trkpt>
      <trkpt lat="47.38325" lon="-0.49424">
        <ele>54</ele>
        <time>2025-03-13T22:13:38Z</time>
      </trkpt>
      <trkpt lat="47.38357" lon="-0.49481">
        <ele>54</ele>
        <time>2025-03-13T22:14:18Z</time>
      </trkpt>
      <trkpt lat="47.38377" lon="-0.49507">
        <ele>54</ele>
        <time>2025-03-13T22:14:40Z</time>
      </trkpt>
      <trkpt lat="47.38393" lon="-0.49525">
        <ele>54</ele>
        <time>2025-03-13T22:14:56Z</time>
      </trkpt>
      <trkpt lat="47.38396" lon="-0.49533">
        <ele>54</ele>
        <time>2025-03-13T22:15:01Z</time>
      </trkpt>
      <trkpt lat="47.384" lon="-0.49547">
        <ele>54</ele>
        <time>2025-03-13T22:15:09Z</time>
      </trkpt>
      <trkpt lat="47.38418" lon="-0.49541">
        <ele>55</ele>
        <time>2025-03-13T22:15:24Z</time>
      </trkpt>
      <trkpt lat="47.38503" lon="-0.4953">
        <ele>56</ele>
        <time>2025-03-13T22:16:32Z</time>
      </trkpt>
      <trkpt lat="47.38512" lon="-0.49525">
        <ele>56</ele>
        <time>2025-03-13T22:16:40Z</time>
      </trkpt>
      <trkpt lat="47.38515" lon="-0.49521">
        <ele>56</ele>
        <time>2025-03-13T22:16:43Z</time>
      </trkpt>
      <trkpt lat="47.38518" lon="-0.49526">
        <ele>55</ele>
        <time>2025-03-13T22:16:47Z</time>
      </trkpt>
      <trkpt lat="47.38522" lon="-0.49539">
        <ele>55</ele>
        <time>2025-03-13T22:16:54Z</time>
      </trkpt>
      <trkpt lat="47.38523" lon="-0.49547">
        <ele>55</ele>
        <time>2025-03-13T22:16:59Z</time>
      </trkpt>
      <trkpt lat="47.38524" lon="-0.49558">
        <ele>55</ele>
        <time>2025-03-13T22:17:05Z</time>
      </trkpt>
      <trkpt lat="47.38528" lon="-0.49631">
        <ele>54</ele>
        <time>2025-03-13T22:17:45Z</time>
      </trkpt>
      <trkpt lat="47.38531" lon="-0.4965">
        <ele>54</ele>
        <time>2025-03-13T22:17:55Z</time>
      </trkpt>
      <trkpt lat="47.38532" lon="-0.49657">
        <ele>54</ele>
        <time>2025-03-13T22:17:59Z</time>
      </trkpt>
      <trkpt lat="47.38555" lon="-0.49793">
        <ele>54</ele>
        <time>2025-03-13T22:19:15Z</time>
      </trkpt>
      <trkpt lat="47.38564" lon="-0.49839">
        <ele>54</ele>
        <time>2025-03-13T22:19:41Z</time>
      </trkpt>
      <trkpt lat="47.38569" lon="-0.49865">
        <ele>53</ele>
        <time>2025-03-13T22:19:56Z</time>
      </trkpt>
      <trkpt lat="47.38581" lon="-0.49919">
        <ele>53</ele>
        <time>2025-03-13T22:20:26Z</time>
      </trkpt>
      <trkpt lat="47.38583" lon="-0.49941">
        <ele>53</ele>
        <time>2025-03-13T22:20:39Z</time>
      </trkpt>
      <trkpt lat="47.38582" lon="-0.50067">
        <ele>51</ele>
        <time>2025-03-13T22:21:47Z</time>
      </trkpt>
      <trkpt lat="47.38571" lon="-0.50075">
        <ele>51</ele>
        <time>2025-03-13T22:21:57Z</time>
      </trkpt>
      <trkpt lat="47.38563" lon="-0.5008">
        <ele>51</ele>
        <time>2025-03-13T22:22:04Z</time>
      </trkpt>
      <trkpt lat="47.38546" lon="-0.5008">
        <ele>51</ele>
        <time>2025-03-13T22:22:17Z</time>
      </trkpt>
      <trkpt lat="47.38491" lon="-0.50085">
        <ele>52</ele>
        <time>2025-03-13T22:23:01Z</time>
      </trkpt>
      <trkpt lat="47.38441" lon="-0.50096">
        <ele>51</ele>
        <time>2025-03-13T22:23:42Z</time>
      </trkpt>
      <trkpt lat="47.38365" lon="-0.50122">
        <ele>48</ele>
        <time>2025-03-13T22:24:44Z</time>
      </trkpt>
      <trkpt lat="47.38333" lon="-0.50146">
        <ele>48</ele>
        <time>2025-03-13T22:25:13Z</time>
      </trkpt>
      <trkpt lat="47.38329" lon="-0.50148">
        <ele>48</ele>
        <time>2025-03-13T22:25:16Z</time>
      </trkpt>
      <trkpt lat="47.38332" lon="-0.50166">
        <ele>48</ele>
        <time>2025-03-13T22:25:26Z</time>
      </trkpt>
      <trkpt lat="47.38331" lon="-0.50236">
        <ele>48</ele>
        <time>2025-03-13T22:26:04Z</time>
      </trkpt>
      <trkpt lat="47.38337" lon="-0.50374">
        <ele>50</ele>
        <time>2025-03-13T22:27:19Z</time>
      </trkpt>
      <trkpt lat="47.38342" lon="-0.504">
        <ele>51</ele>
        <time>2025-03-13T22:27:34Z</time>
      </trkpt>
      <trkpt lat="47.3838" lon="-0.50537">
        <ele>51</ele>
        <time>2025-03-13T22:28:54Z</time>
      </trkpt>
      <trkpt lat="47.38381" lon="-0.50544">
        <ele>51</ele>
        <time>2025-03-13T22:28:58Z</time>
      </trkpt>
      <trkpt lat="47.38382" lon="-0.50557">
        <ele>50</ele>
        <time>2025-03-13T22:29:05Z</time>
      </trkpt>
      <trkpt lat="47.38386" lon="-0.50569">
        <ele>50</ele>
        <time>2025-03-13T22:29:13Z</time>
      </trkpt>
      <trkpt lat="47.38383" lon="-0.50572">
        <ele>50</ele>
        <time>2025-03-13T22:29:15Z</time>
      </trkpt>
      <trkpt lat="47.38365" lon="-0.5061">
        <ele>49</ele>
        <time>2025-03-13T22:29:41Z</time>
      </trkpt>
      <trkpt lat="47.38358" lon="-0.50621">
        <ele>49</ele>
        <time>2025-03-13T22:29:49Z</time>
      </trkpt>
      <trkpt lat="47.38327" lon="-0.50643">
        <ele>48</ele>
        <time>2025-03-13T22:30:16Z</time>
      </trkpt>
      <trkpt lat="47.38316" lon="-0.50649">
        <ele>48</ele>
        <time>2025-03-13T22:30:26Z</time>
      </trkpt>
      <trkpt lat="47.38308" lon="-0.50649">
        <ele>48</ele>
        <time>2025-03-13T22:30:32Z</time>
      </trkpt>
      <trkpt lat="47.38299" lon="-0.50646">
        <ele>48</ele>
        <time>2025-03-13T22:30:39Z</time>
      </trkpt>
      <trkpt lat="47.38254" lon="-0.50624">
        <ele>48</ele>
        <time>2025-03-13T22:31:17Z</time>
      </trkpt>
      <trkpt lat="47.38236" lon="-0.50621">
        <ele>48</ele>
        <time>2025-03-13T22:31:32Z</time>
      </trkpt>
      <trkpt lat="47.38204" lon="-0.50623">
        <ele>46</ele>
        <time>2025-03-13T22:31:58Z</time>
      </trkpt>
      <trkpt lat="47.38113" lon="-0.50637">
        <ele>43</ele>
        <time>2025-03-13T22:33:11Z</time>
      </trkpt>
      <trkpt lat="47.38102" lon="-0.5064">
        <ele>42</ele>
        <time>2025-03-13T22:33:20Z</time>
      </trkpt>
      <trkpt lat="47.38082" lon="-0.50656">
        <ele>41</ele>
        <time>2025-03-13T22:33:38Z</time>
      </trkpt>
      <trkpt lat="47.38061" lon="-0.50685">
        <ele>40</ele>
        <time>2025-03-13T22:34:01Z</time>
      </trkpt>
      <trkpt lat="47.3806" lon="-0.50685">
        <ele>40</ele>
        <time>2025-03-13T22:34:02Z</time>
      </trkpt>
      <trkpt lat="47.38051" lon="-0.50689">
        <ele>40</ele>
        <time>2025-03-13T22:34:09Z</time>
      </trkpt>
      <trkpt lat="47.37998" lon="-0.50692">
        <ele>40</ele>
        <time>2025-03-13T22:34:52Z</time>
      </trkpt>
      <trkpt lat="47.3794" lon="-0.50709">
        <ele>38</ele>
        <time>2025-03-13T22:35:39Z</time>
      </trkpt>
      <trkpt lat="47.37937" lon="-0.50712">
        <ele>38</ele>
        <time>2025-03-13T22:35:42Z</time>
      </trkpt>
      <trkpt lat="47.3797" lon="-0.50773">
        <ele>39</ele>
        <time>2025-03-13T22:36:24Z</time>
      </trkpt>
      <trkpt lat="47.37985" lon="-0.50799">
        <ele>40</ele>
        <time>2025-03-13T22:36:43Z</time>
      </trkpt>
      <trkpt lat="47.37992" lon="-0.50808">
        <ele>41</ele>
        <time>2025-03-13T22:36:50Z</time>
      </trkpt>
      <trkpt lat="47.3799" lon="-0.50813">
        <ele>41</ele>
        <time>2025-03-13T22:36:53Z</time>
      </trkpt>
      <trkpt lat="47.37982" lon="-0.50831">
        <ele>41</ele>
        <time>2025-03-13T22:37:05Z</time>
      </trkpt>
      <trkpt lat="47.37968" lon="-0.50894">
        <ele>43</ele>
        <time>2025-03-13T22:37:41Z</time>
      </trkpt>
      <trkpt lat="47.37958" lon="-0.50938">
        <ele>46</ele>
        <time>2025-03-13T22:38:06Z</time>
      </trkpt>
      <trkpt lat="47.37955" lon="-0.50948">
        <ele>46</ele>
        <time>2025-03-13T22:38:12Z</time>
      </trkpt>
      <trkpt lat="47.37949" lon="-0.5096">
        <ele>47</ele>
        <time>2025-03-13T22:38:20Z</time>
      </trkpt>
      <trkpt lat="47.37935" lon="-0.50984">
        <ele>49</ele>
        <time>2025-03-13T22:38:37Z</time>
      </trkpt>
      <trkpt lat="47.3791" lon="-0.51012">
        <ele>50</ele>
        <time>2025-03-13T22:39:03Z</time>
      </trkpt>
      <trkpt lat="47.37904" lon="-0.51021">
        <ele>50</ele>
        <time>2025-03-13T22:39:09Z</time>
      </trkpt>
      <trkpt lat="47.379" lon="-0.5104">
        <ele>51</ele>
        <time>2025-03-13T22:39:20Z</time>
      </trkpt>
      <trkpt lat="47.37894" lon="-0.51114">
        <ele>52</ele>
        <time>2025-03-13T22:40:01Z</time>
      </trkpt>
      <trkpt lat="47.37895" lon="-0.5115">
        <ele>52</ele>
        <time>2025-03-13T22:40:20Z</time>
      </trkpt>
      <trkpt lat="47.37899" lon="-0.51171">
        <ele>52</ele>
        <time>2025-03-13T22:40:32Z</time>
      </trkpt>
      <trkpt lat="47.37905" lon="-0.51188">
        <ele>52</ele>
        <time>2025-03-13T22:40:42Z</time>
      </trkpt>
      <trkpt lat="47.3792" lon="-0.51212">
        <ele>53</ele>
        <time>2025-03-13T22:41:00Z</time>
      </trkpt>
      <trkpt lat="47.37876" lon="-0.51238">
        <ele>49</ele>
        <time>2025-03-13T22:41:38Z</time>
      </trkpt>
      <trkpt lat="47.37745" lon="-0.51335">
        <ele>45</ele>
        <time>2025-03-13T22:43:35Z</time>
      </trkpt>
      <trkpt lat="47.37675" lon="-0.51394">
        <ele>46</ele>
        <time>2025-03-13T22:44:40Z</time>
      </trkpt>
      <trkpt lat="47.37498" lon="-0.51495">
        <ele>25</ele>
        <time>2025-03-13T22:47:12Z</time>
      </trkpt>
      <trkpt lat="47.37521" lon="-0.51504">
        <ele>27</ele>
        <time>2025-03-13T22:47:31Z</time>
      </trkpt>
      <trkpt lat="47.37527" lon="-0.51506">
        <ele>28</ele>
        <time>2025-03-13T22:47:36Z</time>
      </trkpt>
      <trkpt lat="47.37526" lon="-0.51514">
        <ele>28</ele>
        <time>2025-03-13T22:47:40Z</time>
      </trkpt>
      <trkpt lat="47.37541" lon="-0.51604">
        <ele>26</ele>
        <time>2025-03-13T22:48:30Z</time>
      </trkpt>
      <trkpt lat="47.37555" lon="-0.51652">
        <ele>27</ele>
        <time>2025-03-13T22:48:59Z</time>
      </trkpt>
      <trkpt lat="47.37577" lon="-0.51738">
        <ele>24</ele>
        <time>2025-03-13T22:49:49Z</time>
      </trkpt>
      <trkpt lat="47.37592" lon="-0.5177">
        <ele>24</ele>
        <time>2025-03-13T22:50:10Z</time>
      </trkpt>
      <trkpt lat="47.37589" lon="-0.51799">
        <ele>23</ele>
        <time>2025-03-13T22:50:26Z</time>
      </trkpt>
      <trkpt lat="47.37547" lon="-0.51855">
        <ele>22</ele>
        <time>2025-03-13T22:51:11Z</time>
      </trkpt>
      <trkpt lat="47.37529" lon="-0.51875">
        <ele>22</ele>
        <time>2025-03-13T22:51:29Z</time>
      </trkpt>
      <trkpt lat="47.37515" lon="-0.51885">
        <ele>23</ele>
        <time>2025-03-13T22:51:41Z</time>
      </trkpt>
      <trkpt lat="47.3751" lon="-0.51895">
        <ele>23</ele>
        <time>2025-03-13T22:51:48Z</time>
      </trkpt>
      <trkpt lat="47.37478" lon="-0.51926">
        <ele>24</ele>
        <time>2025-03-13T22:52:19Z</time>
      </trkpt>
      <trkpt lat="47.37473" lon="-0.51933">
        <ele>25</ele>
        <time>2025-03-13T22:52:24Z</time>
      </trkpt>
      <trkpt lat="47.37469" lon="-0.51948">
        <ele>25</ele>
        <time>2025-03-13T22:52:33Z</time>
      </trkpt>
      <trkpt lat="47.37471" lon="-0.51973">
        <ele>25</ele>
        <time>2025-03-13T22:52:47Z</time>
      </trkpt>
      <trkpt lat="47.37468" lon="-0.51995">
        <ele>26</ele>
        <time>2025-03-13T22:52:59Z</time>
      </trkpt>
      <trkpt lat="47.37447" lon="-0.52071">
        <ele>29</ele>
        <time>2025-03-13T22:53:43Z</time>
      </trkpt>
      <trkpt lat="47.37434" lon="-0.52131">
        <ele>31</ele>
        <time>2025-03-13T22:54:18Z</time>
      </trkpt>
      <trkpt lat="47.37434" lon="-0.52152">
        <ele>32</ele>
        <time>2025-03-13T22:54:29Z</time>
      </trkpt>
      <trkpt lat="47.37439" lon="-0.52165">
        <ele>32</ele>
        <time>2025-03-13T22:54:37Z</time>
      </trkpt>
      <trkpt lat="47.37451" lon="-0.52189">
        <ele>33</ele>
        <time>2025-03-13T22:54:53Z</time>
      </trkpt>
      <trkpt lat="47.37479" lon="-0.52208">
        <ele>33</ele>
        <time>2025-03-13T22:55:18Z</time>
      </trkpt>
      <trkpt lat="47.37493" lon="-0.52215">
        <ele>33</ele>
        <time>2025-03-13T22:55:30Z</time>
      </trkpt>
      <trkpt lat="47.37519" lon="-0.52218">
        <ele>35</ele>
        <time>2025-03-13T22:55:51Z</time>
      </trkpt>
      <trkpt lat="47.37548" lon="-0.52219">
        <ele>36</ele>
        <time>2025-03-13T22:56:14Z</time>
      </trkpt>
      <trkpt lat="47.37569" lon="-0.52223">
        <ele>37</ele>
        <time>2025-03-13T22:56:31Z</time>
      </trkpt>
      <trkpt lat="47.37631" lon="-0.52257">
        <ele>41</ele>
        <time>2025-03-13T22:57:24Z</time>
      </trkpt>
      <trkpt lat="47.37654" lon="-0.52259">
        <ele>42</ele>
        <time>2025-03-13T22:57:42Z</time>
      </trkpt>
      <trkpt lat="47.37684" lon="-0.52255">
        <ele>43</ele>
        <time>2025-03-13T22:58:06Z</time>
      </trkpt>
      <trkpt lat="47.37729" lon="-0.52246">
        <ele>43</ele>
        <time>2025-03-13T22:58:43Z</time>
      </trkpt>
      <trkpt lat="47.37733" lon="-0.52258">
        <ele>43</ele>
        <time>2025-03-13T22:58:50Z</time>
      </trkpt>
      <trkpt lat="47.3774" lon="-0.52256">
        <ele>43</ele>
        <time>2025-03-13T22:58:56Z</time>
      </trkpt>
      <trkpt lat="47.37776" lon="-0.52258">
        <ele>43</ele>
        <time>2025-03-13T22:59:24Z</time>
      </trkpt>
      <trkpt lat="47.37783" lon="-0.52255">
        <ele>43</ele>
        <time>2025-03-13T22:59:30Z</time>
      </trkpt>
      <trkpt lat="47.37786" lon="-0.52252">
        <ele>43</ele>
        <time>2025-03-13T22:59:33Z</time>
      </trkpt>
      <trkpt lat="47.37788" lon="-0.52258">
        <ele>43</ele>
        <time>2025-03-13T22:59:37Z</time>
      </trkpt>
      <trkpt lat="47.378" lon="-0.52312">
        <ele>43</ele>
        <time>2025-03-13T23:00:08Z</time>
      </trkpt>
      <trkpt lat="47.37828" lon="-0.52314">
        <ele>42</ele>
        <time>2025-03-13T23:00:30Z</time>
      </trkpt>
      <trkpt lat="47.37839" lon="-0.52318">
        <ele>42</ele>
        <time>2025-03-13T23:00:39Z</time>
      </trkpt>
      <trkpt lat="47.37836" lon="-0.52323">
        <ele>42</ele>
        <time>2025-03-13T23:00:43Z</time>
      </trkpt>
      <trkpt lat="47.37829" lon="-0.52341">
        <ele>42</ele>
        <time>2025-03-13T23:00:54Z</time>
      </trkpt>
      <trkpt lat="47.3779" lon="-0.52382">
        <ele>43</ele>
        <time>2025-03-13T23:01:32Z</time>
      </trkpt>
      <trkpt lat="47.37745" lon="-0.52417">
        <ele>44</ele>
        <time>2025-03-13T23:02:13Z</time>
      </trkpt>
      <trkpt lat="47.37746" lon="-0.52424">
        <ele>44</ele>
        <time>2025-03-13T23:02:17Z</time>
      </trkpt>
      <trkpt lat="47.37755" lon="-0.52481">
        <ele>45</ele>
        <time>2025-03-13T23:02:49Z</time>
      </trkpt>
      <trkpt lat="47.3772" lon="-0.52505">
        <ele>45</ele>
        <time>2025-03-13T23:03:20Z</time>
      </trkpt>
      <trkpt lat="47.37656" lon="-0.52539">
        <ele>43</ele>
        <time>2025-03-13T23:04:14Z</time>
      </trkpt>
      <trkpt lat="47.37645" lon="-0.52543">
        <ele>43</ele>
        <time>2025-03-13T23:04:23Z</time>
      </trkpt>
      <trkpt lat="47.37646" lon="-0.5255">
        <ele>43</ele>
        <time>2025-03-13T23:04:27Z</time>
      </trkpt>
      <trkpt lat="47.37646" lon="-0.52633">
        <ele>43</ele>
        <time>2025-03-13T23:05:12Z</time>
      </trkpt>
      <trkpt lat="47.37645" lon="-0.52717">
        <ele>45</ele>
        <time>2025-03-13T23:05:58Z</time>
      </trkpt>
      <trkpt lat="47.37647" lon="-0.52809">
        <ele>48</ele>
        <time>2025-03-13T23:06:48Z</time>
      </trkpt>
      <trkpt lat="47.3763" lon="-0.52839">
        <ele>49</ele>
        <time>2025-03-13T23:07:09Z</time>
      </trkpt>
      <trkpt lat="47.37568" lon="-0.52922">
        <ele>50</ele>
        <time>2025-03-13T23:08:16Z</time>
      </trkpt>
      <trkpt lat="47.37556" lon="-0.52932">
        <ele>50</ele>
        <time>2025-03-13T23:08:27Z</time>
      </trkpt>
      <trkpt lat="47.3753" lon="-0.52945">
        <ele>51</ele>
        <time>2025-03-13T23:08:49Z</time>
      </trkpt>
      <trkpt lat="47.37488" lon="-0.52974">
        <ele>53</ele>
        <time>2025-03-13T23:09:26Z</time>
      </trkpt>
      <trkpt lat="47.37478" lon="-0.52982">
        <ele>54</ele>
        <time>2025-03-13T23:09:35Z</time>
      </trkpt>
      <trkpt lat="47.3747" lon="-0.52991">
        <ele>54</ele>
        <time>2025-03-13T23:09:43Z</time>
      </trkpt>
      <trkpt lat="47.37464" lon="-0.53001">
        <ele>55</ele>
        <time>2025-03-13T23:09:50Z</time>
      </trkpt>
      <trkpt lat="47.37453" lon="-0.53021">
        <ele>55</ele>
        <time>2025-03-13T23:10:04Z</time>
      </trkpt>
      <trkpt lat="47.37444" lon="-0.53049">
        <ele>56</ele>
        <time>2025-03-13T23:10:21Z</time>
      </trkpt>
      <trkpt lat="47.37422" lon="-0.53127">
        <ele>58</ele>
        <time>2025-03-13T23:11:07Z</time>
      </trkpt>
      <trkpt lat="47.37409" lon="-0.53163">
        <ele>59</ele>
        <time>2025-03-13T23:11:29Z</time>
      </trkpt>
      <trkpt lat="47.37394" lon="-0.53199">
        <ele>58</ele>
        <time>2025-03-13T23:11:52Z</time>
      </trkpt>
      <trkpt lat="47.37371" lon="-0.53246">
        <ele>58</ele>
        <time>2025-03-13T23:12:23Z</time>
      </trkpt>
      <trkpt lat="47.37357" lon="-0.53271">
        <ele>57</ele>
        <time>2025-03-13T23:12:41Z</time>
      </trkpt>
      <trkpt lat="47.37331" lon="-0.53308">
        <ele>57</ele>
        <time>2025-03-13T23:13:10Z</time>
      </trkpt>
      <trkpt lat="47.37313" lon="-0.53327">
        <ele>58</ele>
        <time>2025-03-13T23:13:28Z</time>
      </trkpt>
      <trkpt lat="47.37297" lon="-0.53347">
        <ele>58</ele>
        <time>2025-03-13T23:13:44Z</time>
      </trkpt>
      <trkpt lat="47.37281" lon="-0.53362">
        <ele>58</ele>
        <time>2025-03-13T23:14:00Z</time>
      </trkpt>
      <trkpt lat="47.37258" lon="-0.53374">
        <ele>59</ele>
        <time>2025-03-13T23:14:19Z</time>
      </trkpt>
      <trkpt lat="47.37232" lon="-0.53385">
        <ele>59</ele>
        <time>2025-03-13T23:14:41Z</time>
      </trkpt>
      <trkpt lat="47.37193" lon="-0.53398">
        <ele>60</ele>
        <time>2025-03-13T23:15:13Z</time>
      </trkpt>
      <trkpt lat="47.37171" lon="-0.53402">
        <ele>60</ele>
        <time>2025-03-13T23:15:30Z</time>
      </trkpt>
      <trkpt lat="47.3714" lon="-0.53404">
        <ele>61</ele>
        <time>2025-03-13T23:15:55Z</time>
      </trkpt>
      <trkpt lat="47.37114" lon="-0.53403">
        <ele>61</ele>
        <time>2025-03-13T23:16:16Z</time>
      </trkpt>
      <trkpt lat="47.37108" lon="-0.53403">
        <ele>61</ele>
        <time>2025-03-13T23:16:21Z</time>
      </trkpt>
      <trkpt lat="47.3707" lon="-0.53309">
        <ele>61</ele>
        <time>2025-03-13T23:17:20Z</time>
      </trkpt>
      <trkpt lat="47.37045" lon="-0.53258">
        <ele>60</ele>
        <time>2025-03-13T23:17:54Z</time>
      </trkpt>
      <trkpt lat="47.37015" lon="-0.532">
        <ele>60</ele>
        <time>2025-03-13T23:18:34Z</time>
      </trkpt>
      <trkpt lat="47.36995" lon="-0.53171">
        <ele>60</ele>
        <time>2025-03-13T23:18:56Z</time>
      </trkpt>
      <trkpt lat="47.36947" lon="-0.53168">
        <ele>59</ele>
        <time>2025-03-13T23:19:35Z</time>
      </trkpt>
      <trkpt lat="47.36904" lon="-0.53172">
        <ele>58</ele>
        <time>2025-03-13T23:20:09Z</time>
      </trkpt>
      <trkpt lat="47.36877" lon="-0.53168">
        <ele>59</ele>
        <time>2025-03-13T23:20:31Z</time>
      </trkpt>
      <trkpt lat="47.36805" lon="-0.5314">
        <ele>59</ele>
        <time>2025-03-13T23:21:31Z</time>
      </trkpt>
      <trkpt lat="47.36793" lon="-0.53131">
        <ele>59</ele>
        <time>2025-03-13T23:21:42Z</time>
      </trkpt>
      <trkpt lat="47.36788" lon="-0.53124">
        <ele>59</ele>
        <time>2025-03-13T23:21:47Z</time>
      </trkpt>
      <trkpt lat="47.36783" lon="-0.53112">
        <ele>59</ele>
        <time>2025-03-13T23:21:55Z</time>
      </trkpt>
      <trkpt lat="47.36758" lon="-0.52955">
        <ele>59</ele>
        <time>2025-03-13T23:23:22Z</time>
      </trkpt>
      <trkpt lat="47.36739" lon="-0.52876">
        <ele>60</ele>
        <time>2025-03-13T23:24:08Z</time>
      </trkpt>
      <trkpt lat="47.3674" lon="-0.52864">
        <ele>60</ele>
        <time>2025-03-13T23:24:14Z</time>
      </trkpt>
      <trkpt lat="47.36739" lon="-0.5285">
        <ele>60</ele>
        <time>2025-03-13T23:24:22Z</time>
      </trkpt>
      <trkpt lat="47.36736" lon="-0.52833">
        <ele>60</ele>
        <time>2025-03-13T23:24:31Z</time>
      </trkpt>
      <trkpt lat="47.36715" lon="-0.52762">
        <ele>61</ele>
        <time>2025-03-13T23:25:13Z</time>
      </trkpt>
      <trkpt lat="47.3671" lon="-0.52737">
        <ele>61</ele>
        <time>2025-03-13T23:25:27Z</time>
      </trkpt>
      <trkpt lat="47.36703" lon="-0.52716">
        <ele>62</ele>
        <time>2025-03-13T23:25:40Z</time>
      </trkpt>
      <trkpt lat="47.36696" lon="-0.52701">
        <ele>62</ele>
        <time>2025-03-13T23:25:50Z</time>
      </trkpt>
      <trkpt lat="47.36691" lon="-0.52688">
        <ele>62</ele>
        <time>2025-03-13T23:25:58Z</time>
      </trkpt>
      <trkpt lat="47.36681" lon="-0.5267">
        <ele>63</ele>
        <time>2025-03-13T23:26:11Z</time>
      </trkpt>
      <trkpt lat="47.3665" lon="-0.5262">
        <ele>64</ele>
        <time>2025-03-13T23:26:48Z</time>
      </trkpt>
      <trkpt lat="47.36647" lon="-0.52615">
        <ele>64</ele>
        <time>2025-03-13T23:26:51Z</time>
      </trkpt>
      <trkpt lat="47.36646" lon="-0.52606">
        <ele>64</ele>
        <time>2025-03-13T23:26:56Z</time>
      </trkpt>
      <trkpt lat="47.36646" lon="-0.526">
        <ele>64</ele>
        <time>2025-03-13T23:26:59Z</time>
      </trkpt>
      <trkpt lat="47.36605" lon="-0.52576">
        <ele>63</ele>
        <time>2025-03-13T23:27:35Z</time>
      </trkpt>
      <trkpt lat="47.36526" lon="-0.52534">
        <ele>60</ele>
        <time>2025-03-13T23:28:42Z</time>
      </trkpt>
      <trkpt lat="47.36512" lon="-0.52531">
        <ele>60</ele>
        <time>2025-03-13T23:28:53Z</time>
      </trkpt>
      <trkpt lat="47.36511" lon="-0.52528">
        <ele>60</ele>
        <time>2025-03-13T23:28:55Z</time>
      </trkpt>
      <trkpt lat="47.36508" lon="-0.52524">
        <ele>60</ele>
        <time>2025-03-13T23:28:58Z</time>
      </trkpt>
      <trkpt lat="47.36506" lon="-0.52524">
        <ele>59</ele>
        <time>2025-03-13T23:29:00Z</time>
      </trkpt>
      <trkpt lat="47.36503" lon="-0.52526">
        <ele>59</ele>
        <time>2025-03-13T23:29:03Z</time>
      </trkpt>
      <trkpt lat="47.36495" lon="-0.52518">
        <ele>59</ele>
        <time>2025-03-13T23:29:10Z</time>
      </trkpt>
      <trkpt lat="47.36484" lon="-0.52511">
        <ele>58</ele>
        <time>2025-03-13T23:29:20Z</time>
      </trkpt>
      <trkpt lat="47.36463" lon="-0.52499">
        <ele>57</ele>
        <time>2025-03-13T23:29:38Z</time>
      </trkpt>
      <trkpt lat="47.36454" lon="-0.52491">
        <ele>56</ele>
        <time>2025-03-13T23:29:46Z</time>
      </trkpt>
      <trkpt lat="47.36449" lon="-0.52485">
        <ele>56</ele>
        <time>2025-03-13T23:29:51Z</time>
      </trkpt>
      <trkpt lat="47.36443" lon="-0.52474">
        <ele>56</ele>
        <time>2025-03-13T23:29:59Z</time>
      </trkpt>
      <trkpt lat="47.36441" lon="-0.52468">
        <ele>56</ele>
        <time>2025-03-13T23:30:03Z</time>
      </trkpt>
      <trkpt lat="47.36412" lon="-0.52385">
        <ele>54</ele>
        <time>2025-03-13T23:30:53Z</time>
      </trkpt>
      <trkpt lat="47.3641" lon="-0.52374">
        <ele>54</ele>
        <time>2025-03-13T23:31:00Z</time>
      </trkpt>
      <trkpt lat="47.36408" lon="-0.52344">
        <ele>54</ele>
        <time>2025-03-13T23:31:16Z</time>
      </trkpt>
      <trkpt lat="47.3641" lon="-0.52325">
        <ele>53</ele>
        <time>2025-03-13T23:31:26Z</time>
      </trkpt>
      <trkpt lat="47.36413" lon="-0.52313">
        <ele>53</ele>
        <time>2025-03-13T23:31:33Z</time>
        <extensions>
          <visugpx:TrkExtension xmlns:visugpx="https://www.visugpx.com/editgpx/">
            <visugpx:node>1</visugpx:node>
            </visugpx:TrkExtension>
        </extensions>
      </trkpt>
    </trkseg>
  </trk>
</gpx>